Tracking 28126 objects as of 1-Oct-2023
HD Live streaming from Space Station
objects crossing your sky now

ATLAS 5 CENTAUR DEB

Track ATLAS 5 CENTAUR DEB now!


NORAD ID: 44846
Int'l Code: 2014-055CE
Perigee: 5,320.7 km
Apogee: 34,145.8 km
Inclination: 21.0 °
Period: 699.6 minutes
Semi major axis: 26104 km
RCS: Unknown
Launch date: September 17, 2014
Source: United States (US)
Launch site: AIR FORCE EASTERN TEST RANGE (AFETR)

Note: This is SATELLITE DEBRIS
Your satellite tracking list
Your tracking list is empty




NASA's NSSDC Master Catalog

Two Line Element Set (TLE):
1 44846U 14055CE  23272.71782575 -.00000154  00000-0  00000-0 0  9990
2 44846  21.0478 146.0553 5521143 170.2694 207.7748  2.05842578 30766
Source of the keplerian elements: AFSPC